| time (UTC) | temp C | wind direction | speed KPH | gust KPH | rain 1hr cm | rain 24hr cm | rain mn cm | humidity % | barometer mb |
| 20260906140048 | 7 | 191 | 0.0 | 1.6 | 0.00 | 0.00 | 0.00 | 91 | 1017.2 |
| 20260906134533 | 6 | 191 | 0.0 | 1.6 | 0.00 | 0.00 | 0.00 | 91 | 1017.0 |
| 20260906133041 | 7 | 191 | 0.0 | 0.0 | 0.00 | 0.00 | 0.00 | 91 | 1017.0 |
| 20260906131544 | 7 | 191 | 1.6 | 4.8 | 0.00 | 0.00 | 0.00 | 91 | 1016.9 |
| 20260906130030 | 7 | 229 | 0.0 | 1.6 | 0.00 | 0.00 | 0.00 | 91 | 1016.9 |
| 20260906124528 | 7 | 229 | 0.0 | 3.2 | 0.00 | 0.00 | 0.00 | 91 | 1016.9 |
| 20260906123032 | 7 | 229 | 0.0 | 1.6 | 0.00 | 0.00 | 0.00 | 91 | 1017.0 |
| 20260906121539 | 7 | 229 | 0.0 | 1.6 | 0.00 | 0.00 | 0.00 | 91 | 1017.0 |
| 20260906120018 | 7 | 189 | 0.0 | 1.6 | 0.00 | 0.00 | 0.00 | 91 | 1017.1 |
| 20260906114529 | 7 | 189 | 3.2 | 4.8 | 0.00 | 0.00 | 0.00 | 91 | 1017.0 |
| 20260906113026 | 7 | 200 | 0.0 | 1.6 | 0.00 | 0.00 | 0.00 | 91 | 1017.1 |
| 20260906111536 | 7 | 200 | 0.0 | 1.6 | 0.00 | 0.00 | 0.00 | 91 | 1017.1 |
| 20260906110032 | 8 | 200 | 0.0 | 1.6 | 0.00 | 0.00 | 0.00 | 91 | 1017.1 |
| 20260906104518 | 7 | 200 | 0.0 | 1.6 | 0.00 | 0.00 | 0.00 | 91 | 1017.2 |
| 20260906103022 | 7 | 200 | 0.0 | 1.6 | 0.00 | 0.00 | 0.00 | 91 | 1017.1 |
| 20260906101529 | 8 | 200 | 1.6 | 3.2 | 0.00 | 0.00 | 0.00 | 91 | 1017.2 |
| 20260906100014 | 8 | 200 | 0.0 | 1.6 | 0.00 | 0.00 | 0.00 | 91 | 1017.1 |
| 20260906094513 | 8 | 200 | 0.0 | 0.0 | 0.00 | 0.00 | 0.00 | 91 | 1017.1 |
| 20260906093025 | 8 | 200 | 0.0 | 0.0 | 0.00 | 0.00 | 0.00 | 91 | 1017.0 |
| 20260906091529 | 8 | 200 | 0.0 | 1.6 | 0.00 | 0.00 | 0.00 | 91 | 1017.2 |
| 20260906090038 | 8 | 199 | 0.0 | 1.6 | 0.00 | 0.00 | 0.00 | 91 | 1017.3 |
| 20260906084520 | 8 | 199 | 0.0 | 1.6 | 0.00 | 0.00 | 0.00 | 91 | 1017.4 |
| 20260906083021 | 8 | 199 | 0.0 | 3.2 | 0.00 | 0.00 | 0.00 | 90 | 1017.5 |
| 20260906081524 | 8 | 202 | 0.0 | 3.2 | 0.00 | 0.00 | 0.00 | 91 | 1017.4 |
| 20260906080016 | 8 | 202 | 0.0 | 0.0 | 0.00 | 0.00 | 0.00 | 91 | 1017.5 |
| 20260906074512 | 9 | 202 | 0.0 | 1.6 | 0.00 | 0.00 | 0.00 | 90 | 1017.4 |
| 20260906073017 | 9 | 202 | 0.0 | 0.0 | 0.00 | 0.00 | 0.00 | 91 | 1017.4 |
| 20260906071529 | 9 | 202 | 0.0 | 1.6 | 0.00 | 0.00 | 0.00 | 91 | 1017.4 |
| 20260906070011 | 9 | 202 | 0.0 | 0.0 | 0.00 | 0.00 | 0.00 | 90 | 1017.4 |
| 20260906064515 | 9 | 202 | 0.0 | 1.6 | 0.00 | 0.00 | 0.00 | 90 | 1017.4 |
| 20260906063020 | 10 | 202 | 0.0 | 0.0 | 0.00 | 0.00 | 0.00 | 90 | 1017.3 |
| 20260906061524 | 10 | 202 | 0.0 | 1.6 | 0.00 | 0.00 | 0.00 | 90 | 1017.4 |
| 20260906060008 | 10 | 202 | 0.0 | 0.0 | 0.00 | 0.00 | 0.00 | 90 | 1017.4 |
| 20260906054511 | 10 | 203 | 0.0 | 3.2 | 0.00 | 0.00 | 0.00 | 90 | 1017.4 |
| 20260906053017 | 10 | 208 | 0.0 | 0.0 | 0.00 | 0.00 | 0.00 | 90 | 1017.5 |
| 20260906051528 | 10 | 208 | 0.0 | 0.0 | 0.00 | 0.00 | 0.00 | 89 | 1017.5 |
| 20260906050013 | 11 | 208 | 0.0 | 0.0 | 0.00 | 0.00 | 0.00 | 90 | 1017.4 |
| 20260906044518 | 11 | 208 | 0.0 | 0.0 | 0.00 | 0.00 | 0.00 | 89 | 1017.3 |
| 20260906043127 | 11 | 208 | 0.0 | 0.0 | 0.00 | 0.00 | 0.00 | 89 | 1017.4 |
| 20260906041534 | 12 | 208 | 0.0 | 3.2 | 0.00 | 0.00 | 0.00 | 89 | 1017.3 |
| 20260906040026 | 12 | 212 | 0.0 | 1.6 | 0.00 | 0.00 | 0.00 | 88 | 1017.6 |
| 20260906034550 | 12 | 212 | 0.0 | 0.0 | 0.00 | 0.00 | 0.00 | 88 | 1017.7 |
| 20260906033038 | 12 | 212 | 0.0 | 0.0 | 0.00 | 0.00 | 0.00 | 87 | 1017.7 |
| 20260906031537 | 13 | 212 | 0.0 | 0.0 | 0.00 | 0.00 | 0.00 | 86 | 1017.7 |
| 20260906030021 | 13 | 212 | 0.0 | 0.0 | 0.00 | 0.00 | 0.00 | 84 | 1017.7 |
| 20260906024533 | 15 | 212 | 0.0 | 1.6 | 0.00 | 0.00 | 0.00 | 83 | 1017.6 |
| 20260906023034 | 15 | 223 | 0.0 | 3.2 | 0.00 | 0.00 | 0.00 | 81 | 1017.5 |
| 20260906021542 | 15 | 200 | 0.0 | 4.8 | 0.00 | 0.00 | 0.00 | 80 | 1017.4 |
| 20260906020023 | 16 | 231 | 0.0 | 8.0 | 0.00 | 0.00 | 0.00 | 79 | 1017.5 |
| 20260906014526 | 16 | 199 | 4.8 | 9.7 | 0.00 | 0.00 | 0.00 | 79 | 1017.4 |
| 20260906013030 | 16 | 193 | 8.0 | 14.5 | 0.00 | 0.00 | 0.00 | 78 | 1017.4 |
| 20260906011532 | 19 | 224 | 4.8 | 9.7 | 0.00 | 0.00 | 0.00 | 65 | 1017.2 |
| 20260906010043 | 20 | 226 | 1.6 | 6.4 | 0.00 | 0.00 | 0.00 | 55 | 1017.0 |
| 20260906004528 | 21 | 304 | 0.0 | 8.0 | 0.00 | 0.00 | 0.00 | 55 | 1016.9 |
| 20260906003031 | 20 | 328 | 0.0 | 4.8 | 0.00 | 0.00 | 0.00 | 58 | 1016.9 |
| 20260906001551 | 21 | 309 | 0.0 | 6.4 | 0.00 | 0.00 | 0.00 | 59 | 1016.8 |
| 20260906000020 | 21 | 339 | 0.0 | 8.0 | 0.00 | 0.00 | 0.00 | 60 | 1016.6 |
| 20260905234522 | 21 | 229 | 1.6 | 9.7 | 0.00 | 0.00 | 0.00 | 59 | 1016.7 |
| 20260905233025 | 21 | 247 | 1.6 | 6.4 | 0.00 | 0.00 | 0.00 | 61 | 1016.7 |
| 20260905231537 | 21 | 327 | 3.2 | 9.7 | 0.00 | 0.00 | 0.00 | 62 | 1016.6 |
| 20260905230041 | 21 | 327 | 3.2 | 12.9 | 0.00 | 0.00 | 0.00 | 61 | 1016.6 |
| 20260905224527 | 21 | 229 | 1.6 | 12.9 | 0.00 | 0.00 | 0.00 | 62 | 1016.7 |
| 20260905223045 | 21 | 301 | 0.0 | 8.0 | 0.00 | 0.00 | 0.00 | 61 | 1016.9 |
| 20260905221542 | 21 | 286 | 1.6 | 16.1 | 0.00 | 0.00 | 0.00 | 63 | 1016.9 |
| 20260905220040 | 21 | 191 | 0.0 | 4.8 | 0.00 | 0.00 | 0.00 | 63 | 1017.0 |
| 20260905214524 | 20 | 193 | 3.2 | 6.4 | 0.00 | 0.00 | 0.00 | 65 | 1017.2 |
| 20260905213028 | 20 | 351 | 1.6 | 8.0 | 0.00 | 0.00 | 0.00 | 66 | 1017.3 |
| 20260905211539 | 20 | 331 | 1.6 | 8.0 | 0.00 | 0.00 | 0.00 | 68 | 1017.4 |
| 20260905210056 | 19 | 345 | 3.2 | 9.7 | 0.00 | 0.00 | 0.00 | 70 | 1017.5 |
| 20260905204530 | 20 | 309 | 3.2 | 9.7 | 0.00 | 0.00 | 0.00 | 69 | 1017.7 |
| 20260905203030 | 19 | 321 | 1.6 | 8.0 | 0.00 | 0.00 | 0.00 | 71 | 1017.7 |
| 20260905201534 | 19 | 323 | 1.6 | 12.9 | 0.00 | 0.00 | 0.00 | 71 | 1017.7 |
| 20260905200105 | 20 | 344 | 4.8 | 11.3 | 0.00 | 0.00 | 0.00 | 69 | 1017.7 |
| 20260905194523 | 19 | 333 | 3.2 | 8.0 | 0.00 | 0.00 | 0.00 | 69 | 1017.7 |
| 20260905193033 | 19 | 1 | 3.2 | 8.0 | 0.00 | 0.00 | 0.00 | 67 | 1017.6 |
| 20260905191538 | 20 | 331 | 3.2 | 6.4 | 0.00 | 0.00 | 0.00 | 68 | 1017.8 |
| 20260905190041 | 19 | 336 | 3.2 | 8.0 | 0.00 | 0.00 | 0.00 | 69 | 1018.0 |
| 20260905184535 | 18 | 318 | 3.2 | 11.3 | 0.00 | 0.00 | 0.00 | 70 | 1018.1 |
| 20260905183038 | 19 | 319 | 0.0 | 4.8 | 0.00 | 0.00 | 0.00 | 71 | 1018.2 |
| 20260905181546 | 19 | 348 | 1.6 | 8.0 | 0.00 | 0.00 | 0.00 | 70 | 1018.3 |
| 20260905180030 | 18 | 345 | 0.0 | 8.0 | 0.00 | 0.00 | 0.00 | 73 | 1018.3 |
| 20260905174527 | 18 | 333 | 3.2 | 8.0 | 0.00 | 0.00 | 0.00 | 74 | 1018.4 |
| 20260905173041 | 18 | 342 | 1.6 | 4.8 | 0.00 | 0.00 | 0.00 | 74 | 1018.2 |
| 20260905171533 | 17 | 224 | 0.0 | 4.8 | 0.00 | 0.00 | 0.00 | 75 | 1018.3 |
| 20260905170016 | 17 | 302 | 0.0 | 4.8 | 0.00 | 0.00 | 0.00 | 79 | 1018.3 |
| 20260905164521 | 17 | 223 | 0.0 | 6.4 | 0.00 | 0.00 | 0.00 | 78 | 1018.2 |
| 20260905163019 | 16 | 231 | 0.0 | 1.6 | 0.00 | 0.00 | 0.00 | 82 | 1018.1 |
| 20260905161522 | 14 | 192 | 0.0 | 0.0 | 0.00 | 0.00 | 0.00 | 87 | 1018.1 |
| 20260905160007 | 12 | 192 | 0.0 | 0.0 | 0.00 | 0.00 | 0.00 | 89 | 1018.2 |
| 20260905154511 | 11 | 191 | 0.0 | 0.0 | 0.00 | 0.00 | 0.00 | 90 | 1018.2 |
| 20260905153024 | 11 | 191 | 0.0 | 0.0 | 0.00 | 0.00 | 0.00 | 90 | 1018.4 |
| 20260905151516 | 11 | 191 | 0.0 | 0.0 | 0.00 | 0.00 | 0.00 | 90 | 1018.3 |
| 20260905150003 | 10 | 191 | 0.0 | 0.0 | 0.00 | 0.00 | 0.00 | 90 | 1018.0 |
| 20260905144509 | 10 | 191 | 0.0 | 0.0 | 0.00 | 0.00 | 0.00 | 90 | 1018.0 |
| 20260905143009 | 10 | 191 | 0.0 | 0.0 | 0.00 | 0.00 | 0.00 | 90 | 1017.9 |